TimeCDT,TemperatureF,Dew PointF,Humidity,Sea Level PressureIn,VisibilityMPH,Wind Direction,Wind SpeedMPH,Gust SpeedMPH,PrecipitationIn,Events,Conditions,WindDirDegrees,DateUTC
12:25 AM,53.6,51.8,94,29.92,2.5,Variable,3.5,-,0.12,Rain,Rain,0,2013-03-11 05:25:00
12:30 AM,53.6,51.8,94,29.93,3.0,West,5.8,-,0.15,Rain,Rain,270,2013-03-11 05:30:00
12:54 AM,53.1,51.1,93,29.93,2.0,WNW,4.6,-,0.25,Rain,Heavy Rain,290,2013-03-11 05:54:00
1:08 AM,53.6,51.8,94,29.93,2.5,NW,3.5,-,0.09,Rain,Heavy Rain,310,2013-03-11 06:08:00
1:15 AM,53.6,51.8,94,29.93,3.0,NW,4.6,-,0.13,Rain,Rain,310,2013-03-11 06:15:00
1:23 AM,53.6,51.8,94,29.92,4.0,Variable,3.5,-,0.14,Rain,Rain,0,2013-03-11 06:23:00
1:39 AM,53.6,51.8,94,29.93,3.0,Variable,4.6,-,0.20,Rain,Rain,0,2013-03-11 06:39:00
1:46 AM,53.6,51.8,94,29.93,4.0,West,3.5,-,0.22,Rain,Rain,280,2013-03-11 06:46:00
1:54 AM,53.1,52.0,96,29.92,3.0,West,4.6,-,0.24,Rain,Rain,280,2013-03-11 06:54:00
2:09 AM,53.6,51.8,94,29.90,5.0,Variable,3.5,-,0.04,Rain,Rain,0,2013-03-11 07:09:00
2:54 AM,53.1,51.1,93,29.90,10.0,West,3.5,-,0.05,,Overcast,280,2013-03-11 07:54:00
3:17 AM,51.8,48.2,88,29.91,10.0,NW,21.9,28.8,0.01,Rain,Light Rain,310,2013-03-11 08:17:00
3:24 AM,48.2,44.6,87,29.92,9.0,NW,15.0,28.8,0.01,Rain,Light Rain,310,2013-03-11 08:24:00
3:54 AM,46.9,45.0,93,29.91,2.5,NNW,10.4,16.1,0.08,Rain,Heavy Rain,330,2013-03-11 08:54:00
4:00 AM,46.4,44.6,93,29.94,3.0,WNW,9.2,-,0.05,Rain,Rain,300,2013-03-11 09:00:00
4:20 AM,46.4,44.6,93,29.93,3.0,WNW,9.2,-,0.12,Rain,Rain,300,2013-03-11 09:20:00
4:39 AM,46.4,44.6,93,29.92,5.0,WNW,11.5,18.4,0.18,Rain,Light Rain,290,2013-03-11 09:39:00
4:54 AM,46.0,43.0,89,29.93,5.0,West,10.4,-,0.20,Rain,Rain,280,2013-03-11 09:54:00
5:03 AM,44.6,42.8,93,29.93,3.0,WNW,9.2,-,0.02,Rain,Rain,290,2013-03-11 10:03:00
5:33 AM,44.6,41.0,87,29.93,10.0,WNW,8.1,-,0.11,Rain,Light Rain,300,2013-03-11 10:33:00
5:44 AM,44.6,41.0,87,29.93,10.0,NW,10.4,-,0.11,,Overcast,310,2013-03-11 10:44:00
5:54 AM,45.0,41.0,86,29.95,10.0,West,8.1,-,0.11,,Overcast,280,2013-03-11 10:54:00
6:54 AM,45.0,39.9,82,29.94,10.0,NW,6.9,-,0.00,Rain,Light Rain,310,2013-03-11 11:54:00
7:54 AM,45.0,39.9,82,29.97,10.0,WSW,5.8,-,0.00,,Overcast,250,2013-03-11 12:54:00
8:54 AM,44.1,37.0,76,29.96,10.0,WNW,8.1,-,0.00,,Overcast,300,2013-03-11 13:54:00
9:47 AM,44.6,37.4,76,29.97,10.0,WNW,6.9,-,N/A,,Overcast,290,2013-03-11 14:47:00
9:54 AM,45.0,37.0,74,29.97,10.0,West,8.1,-,N/A,,Mostly Cloudy,270,2013-03-11 14:54:00
10:17 AM,44.6,37.4,76,29.98,10.0,WNW,8.1,-,N/A,,Mostly Cloudy,290,2013-03-11 15:17:00
10:54 AM,45.0,37.0,74,29.99,10.0,West,8.1,-,N/A,,Mostly Cloudy,280,2013-03-11 15:54:00
11:54 AM,48.0,37.9,68,29.98,10.0,NW,4.6,-,N/A,,Mostly Cloudy,320,2013-03-11 16:54:00
12:13 PM,48.2,39.2,71,29.97,10.0,WNW,9.2,-,N/A,,Scattered Clouds,290,2013-03-11 17:13:00
12:54 PM,51.1,39.0,63,29.96,10.0,WNW,10.4,-,N/A,,Scattered Clouds,290,2013-03-11 17:54:00
1:54 PM,53.1,37.9,57,29.94,10.0,West,5.8,16.1,N/A,,Partly Cloudy,280,2013-03-11 18:54:00
2:54 PM,55.0,36.0,49,29.93,10.0,NW,13.8,18.4,N/A,,Partly Cloudy,320,2013-03-11 19:54:00
3:54 PM,55.0,36.0,49,29.93,10.0,NW,10.4,-,N/A,,Partly Cloudy,320,2013-03-11 20:54:00
4:54 PM,55.9,35.1,45,29.92,10.0,Variable,6.9,-,N/A,,Partly Cloudy,0,2013-03-11 21:54:00
5:54 PM,53.6,35.6,51,29.93,10.0,NNW,10.4,18.4,N/A,,Partly Cloudy,340,2013-03-11 22:54:00
6:54 PM,51.1,34.0,52,29.95,10.0,NNW,11.5,-,N/A,,Clear,340,2013-03-11 23:54:00
7:54 PM,46.9,35.1,63,29.98,10.0,NNW,4.6,-,N/A,,Clear,330,2013-03-12 00:54:00
8:54 PM,44.1,37.0,76,30.01,10.0,NNW,3.5,-,N/A,,Clear,340,2013-03-12 01:54:00
9:54 PM,43.0,37.0,80,30.03,10.0,Calm,Calm,-,N/A,,Clear,0,2013-03-12 02:54:00
10:54 PM,41.0,37.0,86,30.04,10.0,Calm,Calm,-,N/A,,Clear,0,2013-03-12 03:54:00
11:54 PM,39.0,36.0,89,30.04,10.0,Calm,Calm,-,N/A,,Clear,0,2013-03-12 04:54:00